Location: Bonningues
(50.7927°N, 2.0150°E)
Time: 08:06:57
(UTC+00:00)

Spot 2 Rocket - Pass Details

Date: 08 August 2020
Orbit: 757 x 773 km, 98.6° (Epoch: 27 September)

Event Time Altitude Azimuth Distance (km) Brightness Sun altitude
Exits shadow 20:11:25 - 141° (SE) 2,510 5.5 -7.1°
Reaches altitude 10° 20:11:55 10° 140° (SE) 2,315 5.4 -7.2°
Maximum altitude 20:16:48 48° 67° (ENE) 1,010 4.0 -7.8°
Drops below altitude 10° 20:21:42 10° 354° (N) 2,324 6.7 -8.4°
Sets 20:24:04 0° 349° (N) 3,252 7.6 -8.7°
